This demonstration page uses our WeatherBlox Daily Observations layout. Learn more.

Left ArrowRight Arrow

39.51506, -84.39828

Hourly Observations for February 11, 2019

Temp ( °F °C ) Dew Point ( °F °C ) Humidity (%) Winds ( mph kmh ) Pressure ( in mb ) Visibility ( mi km ) Precip ( " mm )
12:15 am 00:15 Cloudy with Mist and Fog 33 0.8 33 0.7 99 99 Calm 30.23 1024 1 1 0.00 0.00
12:35 am 00:35 Cloudy with Fog 33 0.7 33 0.5 99 99 Calm 30.22 1023 1 1 0.00 0.00
12:55 am 00:55 Cloudy with Fog 33 0.5 33 0.4 99 99 Calm 30.22 1023 1 1 0.00 0.00
1:15 am 01:15 Cloudy with Fog 33 0.6 33 0.5 99 99 Calm 30.21 1023 1 1 0.00 0.00
1:35 am 01:35 Cloudy with Fog 33 0.5 33 0.4 99 99 Calm 30.21 1023 1 1 0.00 0.00
1:55 am 01:55 Cloudy with Fog 33 0.6 33 0.5 99 99 Calm 30.20 1023 0 0 0.00 0.00
2:15 am 02:15 Cloudy with Fog 33 0.6 33 0.5 99 99 Calm 30.20 1023 0 0 0.00 0.00
2:35 am 02:35 Cloudy with Fog 33 0.6 33 0.5 99 99 Calm 30.20 1023 0 0 0.00 0.00
2:55 am 02:55 Cloudy with Light Rain 33 0.5 33 0.4 99 99 Calm 30.21 1023 1 1 0.00 0.00
3:15 am 03:15 Cloudy with Light Rain 33 0.6 33 0.6 100 100 Calm 30.20 1023 1 1 0.00 0.00
3:35 am 03:35 Cloudy with Light Rain 34 1.1 34 1.1 100 100 Calm 30.20 1023 1 1 0.00 0.00
3:55 am 03:55 Cloudy with Light Rain 34 1 34 0.9 99 99 Calm 30.19 1022 1 1 0.01 0.25
4:15 am 04:15 Cloudy with Light Rain 34 1.1 34 1 99 99 Calm 30.17 1022 1 1 0.00 0.00
4:35 am 04:35 Cloudy with Light Rain 33 0.7 33 0.7 100 100 N 5 7 30.18 1022 1 1 0.01 0.25
4:55 am 04:55 Cloudy with Light Rain 34 0.9 33 0.8 99 99 Calm 30.18 1022 1 2 0.01 0.25
5:15 am 05:15 Cloudy with Light Rain 34 0.9 33 0.8 99 99 Calm 30.18 1022 1 1 0.00 0.00
5:35 am 05:35 Cloudy with Light Rain 34 1.1 34 1 99 99 Calm 30.18 1022 1 1 0.02 0.51
5:55 am 05:55 Cloudy with Light Rain 34 0.9 33 0.8 99 99 Calm 30.18 1022 1 1 0.03 0.76
6:15 am 06:15 Cloudy with Light Rain 34 0.9 34 0.9 100 100 Calm 30.18 1022 2 3 0.00 0.00
6:35 am 06:35 Cloudy with Light Rain 34 0.9 33 0.8 99 99 Calm 30.18 1022 1 2 0.00 0.00
6:55 am 06:55 Cloudy with Light Rain 34 0.9 33 0.8 99 99 Calm 30.19 1022 2 2 0.01 0.25
7:15 am 07:15 Cloudy with Light Rain 33 0.7 33 0.6 99 99 Calm 30.18 1022 1 2 0.00 0.00
7:35 am 07:35 Cloudy with Light Rain 33 0.8 33 0.7 99 99 Calm 30.19 1022 1 2 0.00 0.00
7:55 am 07:55 Cloudy with Drizzle 33 0.7 33 0.6 99 99 Calm 30.19 1022 1 1 0.00 0.00
8:15 am 08:15 Cloudy with Fog 34 0.9 34 0.9 100 100 Calm 30.19 1022 1 1 0.00 0.00
8:35 am 08:35 Cloudy with Mist and Fog 33 0.8 33 0.7 99 99 Calm 30.19 1022 1 1 0.00 0.00
8:55 am 08:55 Cloudy with Mist and Fog 34 1 34 1 100 100 N 3 6 30.20 1023 1 2 0.00 0.00
9:15 am 09:15 Cloudy with Light Rain 34 1.3 34 1.2 99 99 Calm 30.19 1022 1 1 0.00 0.00
9:35 am 09:35 Cloudy with Light Rain 35 1.7 35 1.6 99 99 Calm 30.19 1022 1 2 0.00 0.00
9:55 am 09:55 Cloudy with Drizzle 35 1.8 35 1.7 99 99 NNE 3 6 30.19 1022 1 2 0.00 0.00
10:15 am 10:15 Cloudy with Drizzle 35 1.9 35 1.9 100 100 NE 3 6 30.18 1022 1 2 0.00 0.00
10:35 am 10:35 Cloudy with Light Rain 36 2.2 36 2.1 99 99 NNE 3 6 30.19 1022 2 3 0.00 0.00
10:55 am 10:55 Cloudy with Drizzle 37 2.5 36 2.4 99 99 E 3 6 30.18 1022 2 3 0.00 0.00
11:15 am 11:15 Cloudy with Drizzle 37 2.8 37 2.8 100 100 Calm 30.18 1022 3 5 0.00 0.00
11:35 am 11:35 Cloudy with Drizzle 38 3.1 38 3.1 100 100 NNE 3 6 30.17 1022 3 5 0.00 0.00
11:55 am 11:55 Cloudy with Drizzle 38 3.4 38 3.3 99 99 N 6 9 30.17 1022 4 6 0.00 0.00
12:15 pm 12:15 Cloudy with Light Rain 39 3.8 39 3.7 99 99 NE 6 9 30.16 1021 5 8 0.00 0.00
12:35 pm 12:35 Cloudy with Light Rain 39 4 39 3.7 98 98 ENE 8 13 30.13 1020 10 16 0.00 0.00
12:55 pm 12:55 Cloudy with Light Rain 40 4.4 39 4 97 97 ENE 9 15 30.11 1020 10 16 0.00 0.00
1:15 pm 13:15 Cloudy with Drizzle 40 4.7 39 4.1 96 96 ENE 8 13 30.11 1020 10 16 0.00 0.00
1:35 pm 13:35 Cloudy with Light Rain 41 5 40 4.3 95 95 E 7 11 30.10 1019 10 16 0.00 0.00
1:55 pm 13:55 Cloudy with Light Rain 41 4.8 39 3.9 94 94 E 5 7 30.09 1019 10 16 0.00 0.00
2:15 pm 14:15 Cloudy with Light Rain 41 4.9 39 4.1 95 95 E 6 9 30.09 1019 10 16 0.00 0.00
2:35 pm 14:35 Cloudy with Light Rain 41 4.9 39 4.1 95 95 E 6 9 30.09 1019 10 16 0.00 0.00
2:55 pm 14:55 Cloudy with Light Rain 41 4.9 40 4.3 96 96 ENE 5 7 30.08 1019 10 16 0.00 0.00
3:15 pm 15:15 Cloudy with Light Rain 40 4.6 39 4.1 97 97 NE 5 7 30.08 1019 7 11 0.01 0.25
3:35 pm 15:35 Cloudy with Light Rain 40 4.5 39 4.1 97 97 ENE 6 9 30.08 1019 5 8 0.01 0.25
3:55 pm 15:55 Cloudy with Light Rain 40 4.5 39 4.1 97 97 ENE 7 11 30.07 1018 5 8 0.02 0.51
4:15 pm 16:15 Cloudy with Light Rain 40 4.5 39 4.1 97 97 NE 6 9 30.06 1018 7 11 0.01 0.25
4:35 pm 16:35 Cloudy with Light Rain 40 4.3 39 3.9 97 97 NE 6 9 30.06 1018 7 11 0.01 0.25
4:55 pm 16:55 Cloudy with Light Rain 40 4.2 39 3.7 97 97 NE 6 9 30.06 1018 7 11 0.01 0.25
5:15 pm 17:15 Cloudy with Light Rain 39 4.1 38 3.6 97 97 NE 7 11 30.05 1018 7 11 0.01 0.25
5:35 pm 17:35 Cloudy with Light Rain 39 4 38 3.5 97 97 NE 7 11 30.05 1018 7 11 0.02 0.51
5:55 pm 17:55 Cloudy with Rain 39 3.7 38 3.2 97 97 NE 7 11 30.07 1018 5 8 0.03 0.76
6:15 pm 18:15 Cloudy with Rain 38 3.5 37 3 97 97 NE 5 7 30.07 1018 4 6 0.03 0.76
6:35 pm 18:35 Cloudy with Light Rain 38 3.5 37 3 97 97 NE 9 15 30.07 1018 5 8 0.05 1.27
7:15 pm 19:15 Cloudy with Rain 38 3.2 37 2.8 97 97 NE 8 13 30.06 1018 5 8 0.02 0.51
7:35 pm 19:35 Cloudy with Rain 38 3.2 37 2.7 97 97 NE 10 17 30.06 1018 5 8 0.03 0.76
7:55 pm 19:55 Cloudy with Light Rain 38 3.1 37 2.6 97 97 ENE 9 15 30.06 1018 5 8 0.04 1.02
8:15 pm 20:15 Cloudy with Light Rain 38 3.1 37 2.6 97 97 ENE 12 19 30.05 1017 5 8 0.01 0.25
8:35 pm 20:35 Cloudy with Rain 38 3.1 37 2.6 97 97 ENE 10 17 30.04 1017 5 8 0.03 0.76
8:55 pm 20:55 Cloudy with Light Rain 38 3.2 37 2.5 95 95 ENE 8 13 30.04 1017 7 11 0.04 1.02
9:15 pm 21:15 Cloudy with Light Rain 38 3.1 37 2.5 96 96 ENE 9 15 30.02 1016 7 11 0.01 0.25
9:35 pm 21:35 Cloudy with Light Rain 38 3.1 36 2.4 95 95 ENE 8 13 30.02 1016 7 11 0.02 0.51
9:55 pm 21:55 Cloudy with Light Rain 37 3 36 2.4 96 96 ENE 10 17 30.00 1016 7 11 0.03 0.76
10:15 pm 22:15 Cloudy with Light Rain 38 3.1 36 2.4 95 95 ENE 9 15 29.99 1015 7 11 0.00 0.00
10:35 pm 22:35 Cloudy with Light Rain 38 3.2 37 2.5 95 95 ENE 5 7 29.99 1015 5 8 0.00 0.00
10:55 pm 22:55 Cloudy with Light Rain 38 3.1 36 2.4 95 95 ENE 6 9 29.98 1015 5 8 0.01 0.25
11:15 pm 23:15 Cloudy with Light Rain 38 3.1 37 2.5 96 96 ENE 8 13 29.97 1015 7 11 0.01 0.25
11:35 pm 23:35 Cloudy with Light Rain 38 3.1 37 2.5 96 96 NE 7 11 29.95 1014 5 8 0.01 0.25
11:55 pm 23:55 Cloudy with Light Rain 38 3.2 37 2.6 96 96 ENE 6 9 29.94 1014 5 8 0.01 0.25

Powered by AerisWeather